• In Belgium
  • List of Countries
  • For 7 days
  • Water Temperature
  • Satellite Maps
  • Weather Map
  • Weather Widgets
  • user-avatar
    Login

    Hourly Weather Elbasan

    Today, 25 November, Saturday

    Time Temperature Precipitation Wind Pressure Humidity
    00:00 +8°C° 0 mm 1 mps 739 mmHg 84%
    01:00 +8°C° 0 mm 1 mps 739 mmHg 84%
    02:00 +8°C° 0 mm 1 mps 738 mmHg 83%
    03:00 +8°C° 0 mm 1 mps 738 mmHg 82%
    04:00 +8°C° 0 mm 1 mps 738 mmHg 82%
    05:00 +8°C° 0 mm 1 mps 738 mmHg 81%
    06:00 +8°C° 0 mm 1 mps 738 mmHg 80%
    07:00 +8°C° 0 mm 1 mps 738 mmHg 79%
    08:00 +10°C° 0 mm 1 mps 738 mmHg 72%
    09:00 +12°C° 0 mm 1 mps 738 mmHg 65%
    10:00 +13°C° 0 mm 1 mps 738 mmHg 57%
    11:00 +14°C° 0 mm 1 mps 738 mmHg 56%
    12:00 +14°C° 0 mm 1 mps 737 mmHg 55%
    13:00 +15°C° 0 mm 1 mps 737 mmHg 53%
    14:00 +14°C° 0 mm 1 mps 737 mmHg 60%
    15:00 +13°C° 0 mm 1 mps 737 mmHg 66%
    16:00 +12°C° 0 mm 1 mps 736 mmHg 72%
    17:00 +11°C° 0 mm 1 mps 737 mmHg 76%
    18:00 +10°C° 0 mm 1 mps 737 mmHg 80%
    19:00 +9°C° 0 mm 1 mps 737 mmHg 84%
    20:00 +9°C° 0 mm 1 mps 737 mmHg 85%
    21:00 +8°C° 0 mm 2 mps 737 mmHg 85%
    22:00 +8°C° 0 mm 2 mps 737 mmHg 86%
    23:00 +8°C° 0 mm 2 mps 737 mmHg 86%

    Tomorrow, 26 November, Sunday

    Time Temperature Precipitation Wind Pressure Humidity
    00:00 +8°C° 0 mm 2 mps 737 mmHg 85%
    01:00 +7°C° 0 mm 2 mps 737 mmHg 85%
    02:00 +8°C° 0 mm 2 mps 737 mmHg 84%
    03:00 +8°C° 0 mm 2 mps 736 mmHg 83%
    04:00 +8°C° 0 mm 2 mps 736 mmHg 83%
    05:00 +8°C° 0 mm 3 mps 736 mmHg 83%
    06:00 +8°C° 0 mm 3 mps 736 mmHg 82%
    07:00 +8°C° 0 mm 3 mps 736 mmHg 82%
    08:00 +10°C° 0 mm 3 mps 736 mmHg 77%
    09:00 +12°C° 0 mm 3 mps 735 mmHg 72%
    10:00 +14°C° 0 mm 3 mps 735 mmHg 67%
    11:00 +14°C° 0 mm 3 mps 735 mmHg 65%
    12:00 +15°C° 0 mm 4 mps 734 mmHg 63%
    13:00 +17°C° 0 mm 4 mps 734 mmHg 61%
    14:00 +15°C° 0.3 mm 4 mps 733 mmHg 66%
    15:00 +14°C° 0.3 mm 4 mps 733 mmHg 72%
    16:00 +13°C° 0.3 mm 3 mps 733 mmHg 77%
    17:00 +12°C° 0.8 mm 3 mps 733 mmHg 81%
    18:00 +12°C° 0.8 mm 3 mps 733 mmHg 85%
    19:00 +11°C° 0.8 mm 3 mps 733 mmHg 89%
    20:00 +11°C° 1.2 mm 3 mps 733 mmHg 89%
    21:00 +11°C° 1.2 mm 3 mps 733 mmHg 90%
    22:00 +11°C° 1.2 mm 3 mps 733 mmHg 91%
    23:00 +11°C° 1.3 mm 3 mps 732 mmHg 91%

    Day after tomorrow, 27 November, Monday

    Time Temperature Precipitation Wind Pressure Humidity
    00:00 +12°C° 1.3 mm 2 mps 732 mmHg 91%
    01:00 +10°C° 1.3 mm 2 mps 732 mmHg 90%
    02:00 +10°C° 2.1 mm 2 mps 731 mmHg 92%
    03:00 +10°C° 2.1 mm 2 mps 731 mmHg 93%
    04:00 +10°C° 2.1 mm 2 mps 731 mmHg 94%
    05:00 +10°C° 1.4 mm 2 mps 731 mmHg 93%
    06:00 +10°C° 1.4 mm 2 mps 731 mmHg 93%
    07:00 +9°C° 1.4 mm 2 mps 731 mmHg 93%
    08:00 +9°C° 1.1 mm 2 mps 731 mmHg 91%
    09:00 +9°C° 1.1 mm 2 mps 731 mmHg 89%
    10:00 +9°C° 1.1 mm 2 mps 732 mmHg 88%
    11:00 +9°C° 0.9 mm 2 mps 731 mmHg 87%
    12:00 +9°C° 0.9 mm 2 mps 731 mmHg 86%
    13:00 +9°C° 0.9 mm 2 mps 731 mmHg 85%
    14:00 +8°C° 0.9 mm 3 mps 731 mmHg 85%
    15:00 +8°C° 0.9 mm 3 mps 731 mmHg 86%
    16:00 +8°C° 0.9 mm 3 mps 732 mmHg 86%
    17:00 +7°C° 0.2 mm 3 mps 732 mmHg 85%
    18:00 +7°C° 0.2 mm 3 mps 732 mmHg 85%
    19:00 +5°C° 0.2 mm 3 mps 732 mmHg 85%
    20:00 +5°C° 0 mm 3 mps 733 mmHg 84%
    21:00 +5°C° 0 mm 3 mps 733 mmHg 84%
    22:00 +5°C° 0 mm 3 mps 733 mmHg 83%
    23:00 +6°C° 0 mm 2 mps 733 mmHg 84%

    28 November, Tuesday

    Time Temperature Precipitation Wind Pressure Humidity
    00:00 +5°C° 0 mm 2 mps 733 mmHg 84%
    01:00 +5°C° 0 mm 2 mps 733 mmHg 84%
    02:00 +5°C° 0 mm 2 mps 733 mmHg 84%
    03:00 +5°C° 0 mm 2 mps 733 mmHg 84%
    04:00 +4°C° 0 mm 2 mps 733 mmHg 85%
    05:00 +4°C° 0 mm 2 mps 733 mmHg 84%
    06:00 +4°C° 0 mm 2 mps 733 mmHg 84%
    07:00 +5°C° 0 mm 1 mps 733 mmHg 84%
    08:00 +6°C° 0 mm 1 mps 733 mmHg 79%
    09:00 +7°C° 0 mm 1 mps 733 mmHg 74%
    10:00 +8°C° 0 mm 1 mps 733 mmHg 70%
    11:00 +8°C° 0 mm 1 mps 733 mmHg 69%
    12:00 +8°C° 0 mm 2 mps 733 mmHg 68%
    13:00 +8°C° 0 mm 2 mps 733 mmHg 67%
    14:00 +8°C° 0 mm 2 mps 733 mmHg 70%
    15:00 +7°C° 0 mm 2 mps 733 mmHg 73%
    16:00 +8°C° 0 mm 1 mps 733 mmHg 77%
    17:00 +7°C° 0 mm 1 mps 733 mmHg 78%
    18:00 +6°C° 0 mm 1 mps 733 mmHg 80%
    19:00 +5°C° 0 mm 1 mps 734 mmHg 81%
    20:00 +5°C° 0 mm 1 mps 734 mmHg 81%
    21:00 +5°C° 0 mm 1 mps 734 mmHg 81%
    22:00 +3°C° 0 mm 2 mps 734 mmHg 80%
    23:00 +3°C° 0 mm 2 mps 734 mmHg 79%

    29 November, Wednesday

    Time Temperature Precipitation Wind Pressure Humidity
    00:00 +3°C° 0 mm 2 mps 734 mmHg 78%
    01:00 +3°C° 0 mm 2 mps 734 mmHg 77%
    02:00 +3°C° 0 mm 2 mps 734 mmHg 78%
    03:00 +4°C° 0 mm 2 mps 735 mmHg 79%
    04:00 +4°C° 0 mm 2 mps 735 mmHg 79%
    05:00 +4°C° 0 mm 2 mps 735 mmHg 81%
    06:00 +4°C° 0 mm 2 mps 735 mmHg 82%
    07:00 +4°C° 0 mm 2 mps 735 mmHg 84%
    08:00 +6°C° 0 mm 2 mps 736 mmHg 80%
    09:00 +7°C° 0 mm 2 mps 736 mmHg 76%
    10:00 +8°C° 0 mm 2 mps 736 mmHg 72%
    11:00 +9°C° 0 mm 2 mps 736 mmHg 68%
    12:00 +9°C° 0 mm 2 mps 735 mmHg 64%
    13:00 +10°C° 0 mm 2 mps 735 mmHg 61%
    14:00 +9°C° 0 mm 2 mps 735 mmHg 64%
    15:00 +8°C° 0 mm 2 mps 735 mmHg 68%
    16:00 +7°C° 0 mm 2 mps 735 mmHg 71%
    17:00 +7°C° 0 mm 2 mps 735 mmHg 73%
    18:00 +7°C° 0 mm 3 mps 735 mmHg 74%
    19:00 +5°C° 0 mm 3 mps 735 mmHg 75%
    20:00 +5°C° 0 mm 3 mps 735 mmHg 77%
    21:00 +5°C° 0 mm 4 mps 735 mmHg 78%
    22:00 +5°C° 0 mm 4 mps 735 mmHg 80%
    23:00 +6°C° 0.1 mm 4 mps 735 mmHg 80%

    30 November, Thursday

    Time Temperature Precipitation Wind Pressure Humidity
    00:00 +7°C° 0.1 mm 4 mps 734 mmHg 81%
    01:00 +7°C° 0.1 mm 4 mps 734 mmHg 81%
    02:00 +7°C° 0.3 mm 5 mps 733 mmHg 82%
    03:00 +8°C° 0.3 mm 5 mps 733 mmHg 84%
    04:00 +8°C° 0.3 mm 5 mps 733 mmHg 85%
    05:00 +8°C° 0.2 mm 5 mps 732 mmHg 85%
    06:00 +8°C° 0.2 mm 5 mps 732 mmHg 86%
    07:00 +9°C° 0.2 mm 5 mps 732 mmHg 86%
    08:00 +10°C° 0.2 mm 6 mps 732 mmHg 84%
    09:00 +11°C° 0.2 mm 6 mps 732 mmHg 82%
    10:00 +13°C° 0.2 mm 6 mps 732 mmHg 80%
    11:00 +12°C° 0.1 mm 7 mps 731 mmHg 79%
    12:00 +14°C° 0.1 mm 7 mps 731 mmHg 78%
    13:00 +15°C° 0.1 mm 7 mps 730 mmHg 76%
    14:00 +14°C° 0.3 mm 7 mps 730 mmHg 79%
    15:00 +14°C° 0.3 mm 6 mps 730 mmHg 82%
    16:00 +13°C° 0.3 mm 6 mps 730 mmHg 85%
    17:00 +13°C° 0.6 mm 5 mps 730 mmHg 86%
    18:00 +13°C° 0.6 mm 5 mps 730 mmHg 87%
    19:00 +13°C° 0.6 mm 5 mps 730 mmHg 89%
    20:00 +12°C° 0.1 mm 5 mps 730 mmHg 88%
    21:00 +12°C° 0.1 mm 5 mps 729 mmHg 88%
    22:00 +12°C° 0.1 mm 5 mps 729 mmHg 87%
    23:00 +12°C° 0.5 mm 5 mps 729 mmHg 89%
    Show more